Simultaneous Nadir Overpasses (SNOs) Predictions

Prediction of SNOs between GOES-16 and METOP-C Satellite Orbit:

Table of predicted SNOs for the next 14.0 days since TLE Epoch: 12/14/2024
Index Date Time (GOES-16) GOES-16 Lat,Lon METOP-C Lat,Lon Distance(km) Time Diff (sec)
1 12/15/2024 02:40:37 0.02, -75.17 -0.36, -76.97 204.15 80
2 12/16/2024 02:17:17 0.02, -75.17 0.76, -71.97 365.12 80
3 12/17/2024 14:36:09 -0.01, -75.21 0.30, -76.52 150.63 80
4 12/18/2024 14:18:09 -0.01, -75.21 -0.82, -71.53 419.27 80
5 12/20/2024 02:37:08 0.01, -75.19 -0.21, -76.12 106.15 80
6 12/21/2024 02:13:49 0.01, -75.20 0.91, -71.13 464.28 80
7 12/22/2024 14:32:41 -0.01, -75.25 0.07, -75.70 49.81 80
8 12/25/2024 02:33:40 0.00, -75.26 -0.01, -75.28 2.76 80
9 12/27/2024 14:31:52 0.01, -75.33 -0.10, -74.85 55.26 80
